STARLINK-1312, 45398

Orbit data source: Space-Track

STARLINK-1312, 45398 is a payload satellite owned by SpaceX/Seattle (US) in LEO that was launched on Wed, 18 Mar 2020 UTC via an FALCON 9 launch vehicle from the Air Force Eastern Test Range (AFETR). Payload-class satellites include a variety of spacecraft equipped with specific instruments for various scientific and technological missions. These include communications satellites like Starlink; space stations such as the ISS; scientific satellites like the Hubble; Earth observation satellites from companies like Planet Labs, Umbra, and HawkEye 360; GPS; miniature CubeSats for education and research; and military/defense satellites.

Loading next visibility...
Identifier
45398, 2020-019AQ
Orbit
LEO
Country
Flag of USUS
Related business
Manufacturer
SpaceX/Seattle
Mission
Partially operational Commercial Communications
Bus & Motor
STARLINK, Unknown motor
Mass
260 kg wet, ~248 kg dry
Launch date (UTC)
2020-03-18 (6 years ago)
Launch vehicle
FALCON 9
Launch site
Air Force Eastern Test Range (AFETR)
Object type
Payload
Rocket body
Debris
Shape & HBR
Box + 1 Pan, 10.1 m
Radar Cross Section
13.562 m², Large (>1 m²)

Expand to show TLE details & history
Last TLE update: 15 hours ago

TLE from 15 hours ago
0 STARLINK-1312
1 45398U 20019AQ  25291.33336806  .00359813  00000-0  12577-2 0  9995
2 45398  53.0466  23.2823 0003979 300.0887 287.7197 15.87822720  6042
Epoch: 2025-10-18T08:00Z
TLE epoch observation values (Epoch: 2025-10-18T08:00:03.000Z)
Latitude
-36.48796°
Longitude
89.79584°
Altitude
319.289 km
Speed
7.717 km/s
True Right ascension
15h 47m 29s
True Declination
-36° 18' 47"
Sunlit
Object was in daylight at epoch
Visualization orbit readout
Latitude
Unknown
Longitude
Unknown
Altitude
Unknown
Speed
Unknown
Apparent Right ascension
Unknown
Apparent Declination
Unknown
Sunlit
N/A
Visualization observer readout
Local Sidereal Time
17:38:09
Azimuth
Unknown
Elevation
Unknown
Doppler factor
Unknown
Orbital elements
Apogee altitude
311.331 km
Perigee altitude
306.009 km
Semi-major axis
6,686.807 km
Eccentricity
0.0004
Inclination
53.0466°
RAAN
23.2823°
Arg. of periapsis
300.0887°
True anomaly
287.67626°
Mean anomaly
287.7197°
Eccentric anomaly
287.69798°
Mean motion
3.96931 °/min
Orbital period
90.7 mins
BSTAR
0.0012577
Loading maneuver chart data...
Computing Atmospheric mass density...

Documentation

Showing up to 5 results
|